TimeCDT,TemperatureF,Dew PointF,Humidity,Sea Level PressureIn,VisibilityMPH,Wind Direction,Wind SpeedMPH,Gust SpeedMPH,PrecipitationIn,Events,Conditions,WindDirDegrees,DateUTC
12:15 AM,64.4,55.4,73,29.78,10.0,ESE,13.8,-,N/A,,Clear,120,2013-09-26 05:15:00
12:35 AM,64.4,55.4,73,29.78,10.0,ESE,13.8,-,N/A,,Clear,120,2013-09-26 05:35:00
12:55 AM,64.4,55.4,73,29.77,10.0,ESE,15.0,21.9,N/A,,Clear,120,2013-09-26 05:55:00
1:15 AM,64.4,55.4,73,29.76,10.0,ESE,15.0,23.0,N/A,,Clear,120,2013-09-26 06:15:00
1:34 AM,64.4,55.4,73,29.77,10.0,SE,15.0,21.9,N/A,,Clear,130,2013-09-26 06:34:00
1:54 AM,64.4,55.4,73,29.77,10.0,SE,15.0,18.4,N/A,,Clear,130,2013-09-26 06:54:00
2:14 AM,62.6,55.4,77,29.77,10.0,SE,12.7,18.4,N/A,,Clear,130,2013-09-26 07:14:00
2:35 AM,62.6,55.4,77,29.76,10.0,ESE,13.8,19.6,N/A,,Clear,120,2013-09-26 07:35:00
2:55 AM,62.6,55.4,77,29.76,10.0,SE,13.8,-,N/A,,Clear,130,2013-09-26 07:55:00
3:14 AM,62.6,55.4,77,29.75,10.0,SE,13.8,-,N/A,,Clear,130,2013-09-26 08:14:00
3:34 AM,60.8,55.4,82,29.75,10.0,ESE,11.5,-,N/A,,Clear,120,2013-09-26 08:34:00
3:54 AM,60.8,55.4,82,29.75,10.0,ESE,13.8,-,N/A,,Clear,120,2013-09-26 08:54:00
4:14 AM,60.8,55.4,82,29.74,10.0,ESE,13.8,-,N/A,,Clear,120,2013-09-26 09:14:00
4:34 AM,60.8,55.4,82,29.74,10.0,ESE,17.3,23.0,N/A,,Clear,120,2013-09-26 09:34:00
4:54 AM,60.8,55.4,82,29.73,10.0,ESE,18.4,-,N/A,,Clear,120,2013-09-26 09:54:00
5:14 AM,60.8,55.4,82,29.72,10.0,ESE,15.0,23.0,N/A,,Clear,120,2013-09-26 10:14:00
5:34 AM,60.8,55.4,82,29.72,10.0,ESE,17.3,23.0,N/A,,Clear,120,2013-09-26 10:34:00
5:54 AM,60.8,55.4,82,29.72,10.0,ESE,13.8,-,N/A,,Clear,120,2013-09-26 10:54:00
6:14 AM,60.8,55.4,82,29.71,10.0,ESE,17.3,26.5,N/A,,Clear,120,2013-09-26 11:14:00
6:34 AM,60.8,57.2,88,29.71,10.0,ESE,16.1,21.9,N/A,,Clear,120,2013-09-26 11:34:00
6:54 AM,60.8,57.2,88,29.71,10.0,ESE,17.3,23.0,N/A,,Clear,120,2013-09-26 11:54:00
7:14 AM,60.8,57.2,88,29.71,10.0,SE,16.1,21.9,N/A,,Clear,130,2013-09-26 12:14:00
7:34 AM,62.6,57.2,82,29.72,10.0,ESE,17.3,23.0,N/A,,Clear,120,2013-09-26 12:34:00
7:54 AM,62.6,57.2,82,29.72,10.0,SE,17.3,24.2,N/A,,Clear,130,2013-09-26 12:54:00
8:14 AM,62.6,57.2,82,29.72,10.0,ESE,18.4,23.0,N/A,,Clear,120,2013-09-26 13:14:00
8:34 AM,64.4,57.2,77,29.72,10.0,SE,20.7,27.6,N/A,,Clear,130,2013-09-26 13:34:00
8:54 AM,64.4,59.0,83,29.71,10.0,SE,20.7,26.5,N/A,,Clear,130,2013-09-26 13:54:00
9:15 AM,66.2,59.0,78,29.72,10.0,SE,19.6,26.5,N/A,,Clear,140,2013-09-26 14:15:00
9:34 AM,66.2,60.8,83,29.72,10.0,SE,16.1,27.6,N/A,,Clear,140,2013-09-26 14:34:00
9:54 AM,69.8,60.8,73,29.72,10.0,SE,16.1,28.8,N/A,,Clear,130,2013-09-26 14:54:00
10:14 AM,71.6,60.8,69,29.72,10.0,SE,19.6,27.6,N/A,,Clear,140,2013-09-26 15:14:00
10:34 AM,71.6,60.8,69,29.71,10.0,SE,20.7,32.2,N/A,,Clear,140,2013-09-26 15:34:00
10:54 AM,71.6,60.8,69,29.71,10.0,SE,21.9,29.9,N/A,,Clear,140,2013-09-26 15:54:00
11:14 AM,73.4,60.8,65,29.71,10.0,SE,20.7,29.9,N/A,,Clear,140,2013-09-26 16:14:00
11:34 AM,75.2,62.6,65,29.71,10.0,SSE,20.7,27.6,N/A,,Clear,150,2013-09-26 16:34:00
11:54 AM,75.2,62.6,65,29.71,10.0,SSE,17.3,31.1,N/A,,Clear,150,2013-09-26 16:54:00
12:14 PM,77.0,62.6,61,29.71,10.0,SSE,16.1,26.5,N/A,,Clear,150,2013-09-26 17:14:00
12:35 PM,80.6,62.6,54,29.70,10.0,SSE,17.3,21.9,N/A,,Clear,150,2013-09-26 17:35:00
12:54 PM,80.6,62.6,54,29.70,10.0,SSE,16.1,29.9,N/A,,Clear,160,2013-09-26 17:54:00
1:14 PM,80.6,62.6,54,29.70,10.0,SSE,13.8,24.2,N/A,,Scattered Clouds,150,2013-09-26 18:14:00
1:34 PM,82.4,60.8,48,29.70,10.0,South,16.1,29.9,N/A,,Mostly Cloudy,170,2013-09-26 18:34:00
1:54 PM,84.2,60.8,45,29.70,10.0,South,17.3,24.2,N/A,,Mostly Cloudy,180,2013-09-26 18:54:00
2:14 PM,84.2,60.8,45,29.70,10.0,South,18.4,25.3,N/A,,Scattered Clouds,170,2013-09-26 19:14:00
2:34 PM,82.4,60.8,48,29.70,10.0,South,18.4,27.6,N/A,,Scattered Clouds,170,2013-09-26 19:34:00
2:55 PM,84.2,60.8,45,29.70,10.0,SSE,11.5,-,N/A,,Mostly Cloudy,160,2013-09-26 19:55:00
3:14 PM,84.2,60.8,45,29.70,10.0,South,10.4,20.7,N/A,,Mostly Cloudy,180,2013-09-26 20:14:00
3:34 PM,84.2,62.6,48,29.70,10.0,SSE,12.7,21.9,N/A,,Mostly Cloudy,160,2013-09-26 20:34:00
3:54 PM,86.0,60.8,43,29.69,10.0,South,15.0,24.2,N/A,,Scattered Clouds,180,2013-09-26 20:54:00
4:14 PM,86.0,60.8,43,29.69,10.0,South,13.8,21.9,N/A,,Clear,180,2013-09-26 21:14:00
4:34 PM,86.0,60.8,43,29.69,10.0,SSE,10.4,-,N/A,,Scattered Clouds,160,2013-09-26 21:34:00
4:54 PM,87.8,60.8,40,29.69,10.0,South,8.1,18.4,N/A,,Mostly Cloudy,170,2013-09-26 21:54:00
5:15 PM,86.0,60.8,43,29.70,10.0,South,12.7,16.1,N/A,,Scattered Clouds,180,2013-09-26 22:15:00
5:34 PM,86.0,60.8,43,29.70,10.0,SSW,10.4,-,N/A,,Scattered Clouds,200,2013-09-26 22:34:00
5:54 PM,84.2,60.8,45,29.71,10.0,South,11.5,-,N/A,,Clear,190,2013-09-26 22:54:00
6:15 PM,84.2,60.8,45,29.71,10.0,South,5.8,-,N/A,,Clear,190,2013-09-26 23:15:00
6:34 PM,82.4,60.8,48,29.71,10.0,South,6.9,-,N/A,,Clear,190,2013-09-26 23:34:00
6:54 PM,80.6,62.6,54,29.72,10.0,South,4.6,-,N/A,,Clear,180,2013-09-26 23:54:00
7:14 PM,78.8,60.8,54,29.72,10.0,Calm,Calm,-,N/A,,Scattered Clouds,0,2013-09-27 00:14:00
7:34 PM,78.8,62.6,57,29.72,10.0,South,3.5,-,N/A,,Mostly Cloudy,170,2013-09-27 00:34:00
7:54 PM,78.8,62.6,57,29.73,10.0,SSE,3.5,-,N/A,,Overcast,160,2013-09-27 00:54:00
8:14 PM,75.2,62.6,65,29.73,10.0,ESE,5.8,-,N/A,,Overcast,120,2013-09-27 01:14:00
8:34 PM,73.4,62.6,69,29.74,10.0,WNW,4.6,-,N/A,,Overcast,290,2013-09-27 01:34:00
8:54 PM,75.2,62.6,65,29.74,10.0,Calm,Calm,-,N/A,,Overcast,0,2013-09-27 01:54:00
9:14 PM,73.4,62.6,69,29.75,10.0,Calm,Calm,-,N/A,,Overcast,0,2013-09-27 02:14:00
9:34 PM,75.2,62.6,65,29.75,10.0,Calm,Calm,-,N/A,,Overcast,0,2013-09-27 02:34:00
9:54 PM,75.2,62.6,65,29.76,10.0,South,4.6,-,N/A,,Overcast,170,2013-09-27 02:54:00
10:14 PM,75.2,62.6,65,29.76,10.0,SSE,4.6,-,N/A,,Overcast,160,2013-09-27 03:14:00
10:34 PM,75.2,62.6,65,29.76,10.0,SE,5.8,-,N/A,,Overcast,140,2013-09-27 03:34:00
10:54 PM,75.2,62.6,65,29.76,10.0,SSE,4.6,-,N/A,,Overcast,160,2013-09-27 03:54:00
11:14 PM,75.2,62.6,65,29.77,10.0,SSE,6.9,-,N/A,,Overcast,150,2013-09-27 04:14:00
11:34 PM,75.2,62.6,65,29.77,10.0,SSE,8.1,-,N/A,,Overcast,150,2013-09-27 04:34:00
11:54 PM,73.4,62.6,69,29.77,10.0,SSE,8.1,-,N/A,,Mostly Cloudy,150,2013-09-27 04:54:00